EB2EMZ-15 Weather Reports


time (UTC)temp
F
wind
direction
speed
knots
gust
knots
rain 1hr
in
rain 24hr
in
rain mn
in
humidity
%
barometer
mb
20260503022025 56 90 0.0 0.0 0.00 0.00 0.00 89 992.3
20260503021523 56 102 0.0 0.0 0.00 0.00 0.00 88 992.5
20260503021025 56 112 0.0 0.0 0.00 0.00 0.00 88 992.5
20260503020523 56 112 0.0 0.0 0.00 0.00 0.00 88 992.6
20260503020022 56 22 0.0 0.0 0.00 0.00 0.00 88 992.5
20260503015522 56 69 0.0 0.0 0.00 0.00 0.00 88 992.5
20260503015025 56 68 0.0 0.0 0.00 0.00 0.00 88 992.7
20260503014522 56 112 0.0 0.0 0.00 0.00 0.00 88 992.7
20260503014025 56 90 0.0 0.0 0.00 0.00 0.00 88 992.6
20260503013523 57 68 0.0 0.0 0.00 0.00 0.00 88 992.7
20260503013025 57 112 0.0 0.0 0.00 0.00 0.00 88 992.7
20260503012522 57 112 0.0 0.0 0.00 0.00 0.00 88 992.7
20260503012025 57 90 0.0 0.0 0.00 0.00 0.00 88 992.8
20260503011523 57 90 0.0 0.0 0.00 0.00 0.00 88 992.8
20260503011025 57 90 0.0 0.0 0.00 0.00 0.00 88 993.0
20260503010522 57 107 0.0 0.0 0.00 0.00 0.00 88 993.0
20260503010022 57 112 0.0 0.0 0.00 0.00 0.00 88 993.0
20260503005522 57 112 0.0 0.0 0.00 0.00 0.00 88 993.0
20260503005024 57 112 0.0 0.0 0.00 0.00 0.00 88 993.0
20260503004522 57 45 0.0 0.0 0.00 0.00 0.00 88 993.0
20260503004025 57 45 0.0 0.0 0.00 0.00 0.00 88 993.0
20260503003522 57 45 0.0 0.0 0.00 0.00 0.00 88 993.0
20260503003024 57 45 0.0 0.0 0.00 0.00 0.00 88 992.9
20260503002522 58 45 0.0 0.0 0.00 0.00 0.00 88 993.1
20260503002025 58 45 0.0 0.0 0.00 0.00 0.00 88 993.0
20260503001522 58 45 0.0 0.0 0.00 0.00 0.00 88 993.0
20260503001026 58 45 0.0 0.0 0.00 0.00 0.00 88 993.0
20260503000522 58 45 0.0 0.0 0.00 0.00 0.00 88 993.2
20260503000021 58 45 0.0 0.0 0.00 0.00 0.00 88 993.2
20260502235523 58 45 0.0 0.0 0.00 0.00 0.00 88 993.2
20260502235027 58 45 0.0 0.0 0.00 0.00 0.00 88 993.2
20260502234522 58 45 0.0 0.0 0.00 0.00 0.00 87 993.2
20260502234025 58 112 0.0 0.0 0.00 0.00 0.00 87 993.2
20260502233523 58 112 0.0 0.0 0.00 0.00 0.00 87 993.3
20260502233025 59 112 0.0 0.0 0.00 0.00 0.00 87 993.3
20260502232521 59 112 0.0 0.0 0.00 0.00 0.00 87 993.3
20260502232024 59 112 0.0 0.0 0.00 0.00 0.00 87 993.3
20260502231522 59 112 0.0 0.0 0.00 0.00 0.00 87 993.2
20260502231026 59 112 0.0 0.0 0.00 0.00 0.00 87 993.2
20260502230522 59 112 0.0 0.0 0.00 0.00 0.00 87 993.3
20260502225522 59 112 0.0 0.0 0.00 0.00 0.00 87 993.3
20260502225025 59 112 0.0 0.0 0.00 0.00 0.00 87 993.5
20260502224521 59 112 0.0 0.0 0.00 0.00 0.00 87 993.3
20260502224026 59 112 0.0 0.0 0.00 0.00 0.00 87 993.4
20260502223522 59 112 0.0 0.0 0.00 0.00 0.00 87 993.3
20260502223024 59 112 0.0 0.0 0.00 0.00 0.00 87 993.3
20260502222523 59 112 0.0 0.0 0.00 0.00 0.00 87 993.3
20260502222025 59 112 0.0 0.0 0.00 0.00 0.00 87 993.3
20260502221522 58 112 0.0 0.0 0.00 0.00 0.00 87 993.2
20260502221025 59 112 0.0 0.0 0.00 0.00 0.00 87 993.3
20260502220523 59 112 0.0 0.0 0.00 0.00 0.00 87 993.3
20260502220022 59 112 0.0 0.0 0.00 0.00 0.00 87 993.3
20260502215522 59 115 0.0 0.0 0.00 0.00 0.00 87 993.2
20260502215025 59 135 0.0 0.0 0.00 0.00 0.00 87 993.1
20260502214522 59 135 0.0 0.0 0.00 0.00 0.00 87 993.2
20260502214025 59 135 0.0 0.0 0.00 0.00 0.00 87 993.1
20260502213522 59 135 0.0 0.0 0.00 0.00 0.00 87 993.1
20260502213025 59 135 0.0 0.0 0.00 0.00 0.00 87 993.3
20260502212522 59 135 0.0 0.0 0.00 0.00 0.00 87 993.3
20260502212024 59 135 0.0 0.0 0.00 0.00 0.00 87 993.2
20260502211521 59 112 0.0 0.0 0.00 0.00 0.00 87 993.1
20260502211024 59 112 0.0 0.0 0.00 0.00 0.00 87 993.1
20260502210522 59 42 0.0 0.0 0.00 0.00 0.00 87 993.2
20260502210022 59 94 0.0 0.0 0.00 0.00 0.00 87 993.1
20260502205521 59 112 0.0 0.0 0.00 0.00 0.00 86 993.1
20260502205031 60 112 0.0 0.0 0.00 0.00 0.00 86 993.1
20260502204521 60 68 0.0 0.0 0.00 0.00 0.00 86 993.1
20260502204024 60 68 0.0 0.0 0.00 0.00 0.00 86 992.9
20260502203522 60 68 0.0 0.0 0.00 0.00 0.00 85 993.0
20260502203024 60 68 0.0 0.0 0.00 0.00 0.00 85 993.1
20260502202522 60 70 0.0 0.0 0.00 0.00 0.00 85 993.0
20260502202024 61 135 0.0 0.0 0.00 0.00 0.00 85 992.9
20260502201521 61 135 0.0 0.0 0.00 0.00 0.00 85 992.9
20260502201024 61 158 0.0 0.0 0.00 0.00 0.00 85 992.9
20260502200522 61 158 0.0 0.0 0.00 0.00 0.00 85 992.8
20260502200022 61 158 0.0 0.0 0.00 0.00 0.00 85 992.8
20260502195521 61 158 0.0 0.0 0.00 0.00 0.00 85 992.7
20260502195024 61 158 0.0 0.0 0.00 0.00 0.00 85 992.8
20260502194521 62 158 0.0 0.0 0.00 0.00 0.00 85 992.7
20260502194025 62 158 0.0 0.0 0.00 0.00 0.00 84 992.6
20260502193521 62 158 0.0 0.0 0.00 0.00 0.00 84 992.7
20260502193024 62 158 0.0 0.0 0.00 0.00 0.00 84 992.6
20260502192522 62 158 0.0 0.0 0.00 0.00 0.00 84 992.5
20260502192024 63 158 0.0 0.0 0.00 0.00 0.00 84 992.3
20260502191521 63 158 0.0 0.0 0.00 0.00 0.00 84 992.4
20260502191023 63 158 0.0 0.0 0.00 0.00 0.00 84 992.4
20260502190521 63 158 0.0 0.0 0.00 0.00 0.00 83 992.5
20260502190022 63 158 0.0 0.0 0.00 0.00 0.00 83 992.5
20260502185521 63 158 0.0 0.0 0.00 0.00 0.00 83 992.5
20260502185024 64 158 0.0 0.0 0.00 0.00 0.00 83 992.5
20260502184521 64 158 0.0 0.0 0.00 0.00 0.00 83 992.5
20260502184024 64 158 0.0 0.0 0.00 0.00 0.00 83 992.6
20260502183521 64 158 0.0 0.0 0.00 0.00 0.00 83 992.7
20260502183024 64 158 0.0 0.0 0.00 0.00 0.00 83 992.8
20260502182522 64 158 0.0 0.0 0.00 0.00 0.00 83 992.7
20260502182024 64 158 0.0 0.0 0.00 0.00 0.00 83 992.8
20260502181521 64 158 0.0 0.0 0.00 0.00 0.00 83 992.9
20260502181023 64 158 0.0 0.0 0.00 0.00 0.00 83 993.1
20260502180522 64 158 0.0 0.0 0.00 0.00 0.00 83 993.0
20260502164023 67 158 0.0 0.0 0.00 0.00 0.00 80 992.6
20260502163520 67 158 0.0 0.0 0.00 0.00 0.00 80 992.7
20260502163024 67 158 0.0 0.0 0.00 0.00 0.00 80 992.8
20260502162521 67 158 0.0 0.0 0.00 0.00 0.00 80 992.8
20260502162023 67 158 0.0 0.0 0.00 0.00 0.00 80 992.7
20260502161521 67 158 0.0 0.0 0.00 0.00 0.00 79 992.8
20260502161023 66 158 0.0 0.0 0.00 0.00 0.00 79 992.7
20260502160521 66 158 0.0 0.0 0.00 0.00 0.00 79 992.8
20260502152023 66 0 0.0 0.0 0.00 0.00 0.00 79 993.1
20260502151521 65 0 0.0 0.0 0.00 0.00 0.00 79 993.2
20260502151023 64 0 0.0 0.0 0.00 0.00 0.00 78 993.2
20260502150521 64 0 0.0 0.0 0.00 0.00 0.00 78 993.3
20260502130521 69 158 0.0 1.7 0.00 0.00 0.00 70 995.1
20260502123521 72 158 0.0 0.0 0.00 0.00 0.00 69 994.2
20260502123023 72 158 0.0 0.0 0.00 0.00 0.00 69 994.3
20260502122521 72 158 0.0 0.0 0.00 0.00 0.00 69 994.3
20260502122023 72 158 0.0 0.0 0.00 0.00 0.00 68 994.2
20260502121521 72 158 0.0 0.0 0.00 0.00 0.00 68 994.2
20260502121023 71 158 0.0 0.0 0.00 0.00 0.00 69 994.2
20260502120520 71 159 0.0 0.0 0.00 0.00 0.00 70 994.3
20260502115521 70 151 0.0 0.0 0.00 0.00 0.00 73 994.1
20260502115023 69 165 0.0 0.0 0.00 0.00 0.00 74 994.2
20260502114520 69 158 0.9 2.6 0.00 0.00 0.00 75 994.4
20260502114023 68 158 0.0 0.0 0.00 0.00 0.00 76 994.5
20260502113521 68 164 0.9 2.6 0.00 0.00 0.00 77 994.7
20260502113023 67 158 0.0 0.0 0.00 0.00 0.00 78 994.7
20260502112520 67 135 0.0 0.0 0.00 0.00 0.00 78 994.7
20260502112023 66 53 0.0 0.0 0.00 0.00 0.00 78 994.8
20260502111520 65 45 0.0 0.0 0.00 0.00 0.00 78 995.1
20260502111022 65 45 0.0 0.0 0.00 0.00 0.00 78 995.4
20260502110520 65 45 0.0 0.0 0.00 0.00 0.00 77 995.5
20260502110021 65 45 0.0 0.0 0.00 0.00 0.00 76 995.5
20260502105521 65 45 0.0 0.0 0.00 0.00 0.00 75 995.5
20260502105023 65 45 0.0 0.0 0.00 0.00 0.00 74 995.6
20260502104520 66 45 0.0 0.0 0.00 0.00 0.00 73 995.9
20260502104022 67 158 0.0 0.0 0.00 0.00 0.00 70 996.2
20260502103520 68 158 0.0 0.0 0.00 0.00 0.00 67 996.0
20260502103023 69 158 0.0 0.0 0.00 0.00 0.00 65 995.9
20260502102521 70 158 0.0 0.0 0.00 0.00 0.00 63 995.6
20260502102023 70 158 0.0 0.9 0.00 0.00 0.00 62 995.5
20260502101521 71 161 0.0 5.2 0.00 0.00 0.00 61 995.6
20260502101023 72 159 0.0 5.2 0.00 0.00 0.00 59 995.7
20260502100520 74 158 0.0 0.0 0.00 0.00 0.00 57 995.7
20260502091520 79 180 0.0 0.0 0.00 0.00 0.00 53 995.7
20260502091023 78 180 0.0 0.0 0.00 0.00 0.00 54 995.6
20260502090520 78 180 0.0 0.0 0.00 0.00 0.00 55 995.6
20260502071520 66 45 0.0 0.0 0.00 0.00 0.00 68 995.3
20260502071023 66 158 0.0 0.0 0.00 0.00 0.00 68 995.4
20260502070520 66 338 0.0 0.0 0.00 0.00 0.00 68 995.3
20260502070020 66 338 0.0 0.0 0.00 0.00 0.00 68 995.3
20260502065520 65 338 0.0 1.7 0.00 0.00 0.00 68 995.2
20260502065022 65 357 0.0 1.7 0.00 0.00 0.00 69 995.2
20260502064521 65 180 0.0 0.0 0.00 0.00 0.00 69 995.2
20260502064023 65 326 0.0 0.0 0.00 0.00 0.00 68 995.2
20260502063519 65 338 0.0 0.0 0.00 0.00 0.00 69 995.2
20260502063022 65 128 0.0 0.0 0.00 0.00 0.00 68 995.4
20260502062520 65 338 0.9 2.6 0.00 0.00 0.00 69 995.2
20260502062022 65 338 0.0 0.0 0.00 0.00 0.00 68 995.3
20260502061520 65 338 0.0 0.0 0.00 0.00 0.00 69 995.1
20260502061022 65 356 0.0 0.0 0.00 0.00 0.00 68 995.1
20260502060520 65 338 0.0 0.0 0.00 0.00 0.00 68 995.0
20260502060020 65 338 0.0 0.0 0.00 0.00 0.00 68 994.9
20260502055521 65 0 0.0 0.0 0.00 0.00 0.00 68 995.0
20260502055022 65 0 0.0 0.0 0.00 0.00 0.00 68 995.1
20260502054519 65 0 0.0 0.0 0.00 0.00 0.00 68 995.1
20260502054023 65 0 0.0 0.0 0.00 0.00 0.00 68 994.9
20260502053520 65 0 0.0 0.0 0.00 0.00 0.00 68 995.0
20260502053022 65 0 0.0 0.0 0.00 0.00 0.00 68 995.0
20260502052520 65 158 0.0 0.0 0.00 0.00 0.00 68 995.1
20260502052022 65 338 0.0 0.0 0.00 0.00 0.00 68 995.1
20260502051520 65 338 0.0 0.0 0.00 0.00 0.00 68 995.1
20260502051022 65 338 0.0 0.0 0.00 0.00 0.00 68 995.1
20260502050520 65 338 0.0 0.0 0.00 0.00 0.00 68 995.0
20260502050019 65 338 0.0 0.0 0.00 0.00 0.00 67 995.1
20260502045520 65 338 0.0 0.0 0.00 0.00 0.00 67 995.2
20260502045022 65 338 0.0 0.0 0.00 0.00 0.00 67 995.1
20260502044520 65 338 0.0 0.0 0.00 0.00 0.00 67 995.1
20260502044023 65 338 0.0 0.0 0.00 0.00 0.00 66 995.1
20260502043520 65 0 0.0 0.0 0.00 0.00 0.00 66 995.1
20260502043022 65 0 0.0 0.0 0.00 0.00 0.00 66 994.9
20260502042520 65 338 0.0 0.0 0.00 0.00 0.00 66 995.1
20260502042022 65 338 0.0 0.0 0.00 0.00 0.00 66 995.0
20260502041519 65 338 0.0 0.0 0.00 0.00 0.00 66 995.0
20260502041025 65 45 0.0 0.0 0.00 0.00 0.00 66 995.1
20260502040520 65 29 0.0 0.0 0.00 0.00 0.00 66 995.2
20260502040020 65 45 0.0 0.0 0.00 0.00 0.00 66 995.1
20260502035520 65 134 0.0 0.0 0.00 0.00 0.00 66 995.2
20260502035022 65 45 0.0 0.0 0.00 0.00 0.00 66 995.2
20260502034520 66 45 0.0 0.0 0.00 0.00 0.00 66 995.2
20260502034022 66 338 0.0 0.0 0.00 0.00 0.00 66 995.2
20260502033520 66 338 0.0 0.0 0.00 0.00 0.00 66 995.2
20260502033021 65 350 0.0 0.0 0.00 0.00 0.00 66 995.3
20260502032519 65 0 0.0 0.0 0.00 0.00 0.00 66 995.3
20260502032022 65 338 0.0 0.0 0.00 0.00 0.00 66 995.2
20260502031520 65 158 0.0 0.0 0.00 0.00 0.00 66 995.3
20260502031022 65 54 0.0 0.0 0.00 0.00 0.00 66 995.3
20260502030519 66 338 0.0 0.0 0.00 0.00 0.00 66 995.3
20260502030020 66 338 0.0 0.0 0.00 0.00 0.00 66 995.2
20260502025519 66 338 0.0 0.0 0.00 0.00 0.00 66 995.2
20260502025022 66 338 0.0 0.0 0.00 0.00 0.00 66 995.3
20260502024520 66 338 0.0 0.0 0.00 0.00 0.00 66 995.2
20260502024022 66 338 0.0 0.0 0.00 0.00 0.00 65 995.2
20260502023519 66 338 0.0 0.0 0.00 0.00 0.00 65 995.2
20260502023021 66 338 0.0 0.0 0.00 0.00 0.00 65 995.2
20260502022520 66 338 0.0 0.0 0.00 0.00 0.00 66 995.3